SQ7KHZ-10 Weather Reports


time (UTC)temp
C
wind
direction
speed
KPH
gust
KPH
rain 1hr
cm
rain 24hr
cm
rain mn
cm
humidity
%
barometer
mb
20260905193027 12 261 3.2 3.2 0.00 0.00 0.00 95
20260905191131 15 291 0.0 0.0 0.00 0.00 0.00 78
20260905184745 15 70 0.0 0.0 0.00 0.00 0.00 75 -123.6
20260905182738 16 53 0.0 0.0 0.00 0.00 0.00 73 1016.3
20260905180729 17 326 6.4 6.4 0.00 0.00 0.00 63 1016.5
20260905174710 17 58 3.2 3.2 0.00 0.00 0.00 63 1015.9
20260905172636 17 175 3.2 3.2 0.00 0.00 0.00 64 1015.7
20260905170627 17 232 0.0 0.0 0.00 0.00 0.00 63 1015.4
20260905164512 18 38 0.0 0.0 0.00 0.00 0.00 62 1015.3
20260905162501 18 245 0.0 0.0 0.00 0.00 0.00 61 1015.3
20260905160416 19 104 6.4 6.4 0.00 0.00 0.00 57 1015.1
20260905154340 19 30 6.4 8.0 0.00 0.00 0.00 55 1015.1
20260905150321 20 43 6.4 6.4 0.00 0.00 0.00 57 1014.6
20260905144314 20 359 0.0 0.0 0.00 0.00 0.00 54 1014.8
20260905142101 20 326 4.8 6.4 0.00 0.13 0.00 53 1014.7
20260905140051 21 217 4.8 6.4 0.00 0.13 0.00 53 1014.8
20260905125932 19 279 3.2 3.2 0.00 0.13 0.00 59 1014.9
20260905123922 20 5 11.3 11.3 0.00 0.13 0.00 57 1014.8
20260905121910 20 13 3.2 3.2 0.00 0.13 0.00 58 1014.9
20260905115908 19 78 4.8 4.8 0.00 0.13 0.00 60 1014.9
20260905113859 19 167 11.3 12.9 0.00 0.13 0.00 59 1014.7
20260905111840 20 114 11.3 11.3 0.00 0.13 0.00 56 1014.5
20260905105806 18 39 3.2 3.2 0.00 0.13 0.00 63 1014.6
20260905103755 20 295 3.2 3.2 0.00 0.13 0.00 60 1014.3
20260905101750 20 180 9.7 11.3 0.00 0.13 0.00 61 1014.3
20260905095739 19 32 4.8 4.8 0.00 0.13 0.00 63 1014.3
20260905093729 19 269 11.3 14.5 0.00 0.13 0.00 64 1014.2
20260905091729 18 278 11.3 17.7 0.00 0.13 0.00 69 1014.3
20260905085717 17 260 4.8 4.8 0.00 0.13 0.00 73 1014.3
20260905083708 17 266 0.0 0.0 0.00 0.13 0.00 74 1014.2
20260905081658 17 169 8.0 8.0 0.00 0.13 0.00 73 1013.9
20260905075601 17 297 0.0 0.0 0.00 0.13 0.00 79 1013.9
20260905073526 17 18 6.4 6.4 0.00 0.13 0.00 79 1013.6
20260905071517 16 240 6.4 6.4 0.00 0.13 0.00 85 1013.5
20260905065455 15 180 3.2 3.2 0.00 0.13 0.00 88 1013.3
20260905063445 15 238 4.8 4.8 0.00 0.13 0.00 90 1013.0
20260905061421 15 265 3.2 3.2 0.00 0.13 0.00 92 1012.8
20260905055349 15 132 0.0 0.0 0.00 0.13 0.00 94 1012.7
20260905053342 15 260 4.8 4.8 0.00 0.13 0.00 94 1012.4
20260905051333 15 36 4.8 4.8 0.00 0.13 0.00 94 1012.1
20260905045326 15 343 4.8 4.8 0.00 0.13 0.00 95 1011.9
20260905043316 15 106 0.0 0.0 0.00 0.13 0.00 96 1011.4
20260905041308 15 104 3.2 3.2 0.00 0.13 0.00 97 1011.2
20260905035259 15 308 6.4 8.0 0.00 0.13 0.00 98 1011.0
20260905033253 15 269 3.2 3.2 0.00 0.13 0.00 98 1010.9
20260905031246 15 13 0.0 0.0 0.03 0.13 0.00 98 1010.3
20260905025202 15 263 0.0 0.0 0.03 0.13 0.00 99 1010.7
20260905023144 15 332 4.8 4.8 0.03 0.13 0.00 99 1010.2
20260905021125 15 52 3.2 3.2 0.03 0.10 0.00 99 1010.2
20260905015112 15 69 4.8 4.8 0.03 0.08 0.00 99 1010.3
20260905013103 15 23 3.2 3.2 0.03 0.08 0.00 99 1009.8
20260905011044 15 247 6.4 6.4 0.00 0.05 0.00 99 1010.2
20260905005013 15 259 4.8 4.8 0.03 0.05 0.00 98 1009.8
20260905003001 15 174 9.7 12.9 0.03 0.03 0.00 97 1010.0
20260905000952 15 100 3.2 3.2 0.03 0.03 0.00 97 1009.3
20260904234930 15 287 4.8 4.8 0.03 0.00 0.00 95 1008.7
20260904232855 16 350 4.8 4.8 0.03 0.00 0.00 94 1008.7
20260904230821 16 222 4.8 4.8 0.03 0.00 0.00 97 1008.3
20260904224758 16 41 3.2 3.2 0.00 0.23 0.00 97 1007.9
20260904222735 17 188 0.0 0.0 0.00 0.23 0.00 97 1007.7
20260904220728 17 94 4.8 4.8 0.03 0.23 0.00 99 1007.9
20260904214718 17 49 3.2 3.2 0.08 0.23 0.00 99 1007.8
20260904212711 17 184 0.0 0.0 0.08 0.23 0.00 99 1007.8
20260904210708 17 35 0.0 0.0 0.13 0.18 0.00 99 1008.3
20260904204702 17 177 3.2 3.2 0.13 0.13 0.00 98 1007.8
20260904202654 18 13 9.7 9.7 0.13 0.13 0.00 96 1007.6